User: anonymous   Login
Location: Clifton Park
(41.4873°N, 81.8024°W)
Time: 11:35:57
(UTC+00:00)
Language:

Cosmos 2184 Rocket - Orbit

View from above orbital plane
View from above orbital plane
View from above satellite
View from above satellite

Ground track
Ground track

The orbit data is extracted from the following two-line orbital elements,

1 21938U 92020B   20098.74748039 -.00000021 +00000-0 -37776-4 0  9996
2 21938 082.9286 319.0693 0028531 208.7876 219.5008 13.75275356403958
Epoch (UTC): 07 April 2020 17:56:22
Eccentricity: 0.0028531
inclination: 82.9286°
perigee height: 959 km
apogee height: 1001 km
right ascension of ascending node: 319.0693°
argument of perigee: 208.7876°
revolutions per day: 13.75275356
mean anomaly at epoch: 219.5008°
orbit number at epoch: 40395

The dashed part of the orbit path shows where the satellite is in the earth's shadow,  

DLR